Content
SEND FEEDBACK

Daily
Averages
Monthly
Summary
Switzerland

GENEVA, SWITZERLAND


Home > Europe > Switzerland
Elevation: 415 meters     Latitude: 46 15N     Longitude: 006 08E

WEATHER
 
SELECT A DAY
Number of Records: 305,659;   Date Range: 7/1/96 - 7/26/14
 
SHARE

PRINT THIS DATA

[ ← Previous Day ]
WEATHER ALMANAC - 30 APRIL, 2013
[ Next Day → ]
[ °F ]   °C
Weather ElementAverageHighLow
Temperature12.1 °C15 °C (2:50 pm)10 °C (12:20 am)
Dewpoint9.8 °C11 °C (5:50 pm)8.9 °C (1:00 am)
Humidity85.3 %100 % (1:50 am)65 % (3:00 pm)
Barometer1016.6 hPa1017.6 hPa (1:00 am)1015.2 hPa (5:50 pm)
Wind Speed7.4 km/h16.7 km/h (3:00 pm)
Weather ElementAverage
Visibility6.4 km
Wind DirectionENE (81.7 °)

Weather ElementTotal
Precipitation---
Heating Degree Days5.8 (Base 18.3)
Growing Degree Days2.5 (Base 10)
Averaged from 66 records on 30 April, 2013
WEATHER CONDITIONS BREAKOUT
WIND DIRECTION BREAKOUT
WEATHER BY HOUR - 30 APRIL, 2013
[ °F ]   °C
Local TimeTemperatureDewpointHumidityBarometerVisibilityWind DirectionWind SpeedGust SpeedPrecipitationEventsConditions
12:20 AM10 °C9 °C94 %1017.3 hPa5 kmVariable1.9 km/hMostly Cloudy
12:50 AM10 °C9 °C94 %1017.3 hPa5 kmVariable1.9 km/hMostly Cloudy
1:00 AM10 °C8.9 °C91 %1017.6 hPaNNW (330°)1.9 km/h
1:20 AM10 °C9 °C94 %1017.3 hPa5 kmVariable1.9 km/hMostly Cloudy
1:50 AM10 °C10 °C100 %1017.3 hPa5 kmVariable1.9 km/hMostly Cloudy
2:00 AM10 °C8.9 °C91 %1017.6 hPa4.8 kmNE (50°)1.9 km/hMist
2:20 AM10 °C10 °C100 %1016.3 hPa5 kmCalmMostly Cloudy
2:50 AM10 °C9 °C94 %1016.3 hPa5 kmWNW (290°)1.9 km/hMostly Cloudy
3:00 AM10 °C9.4 °C93 %1016.9 hPaWest (260°)1.9 km/h
3:50 AM10 °C10 °C100 %1016.3 hPa5 kmCalmMostly Cloudy
4:00 AM10 °C8.9 °C92 %1016.9 hPaSSW (210°)3.7 km/h
4:20 AM10 °C10 °C100 %1016.3 hPa5 kmWSW (250°)3.7 km/hOvercast
4:50 AM10 °C10 °C100 %1016.3 hPa5 kmVariable1.9 km/hOvercast
5:20 AM10 °C10 °C100 %1016.3 hPa5 kmCalmOvercast
5:50 AM10 °C10 °C100 %1016.3 hPa5 kmCalmOvercast
6:00 AM10 °C8.9 °C92 %1016.9 hPaWest (260°)3.7 km/h
6:20 AM10 °C10 °C100 %1016.3 hPa4.5 kmVariable1.9 km/hMostly Cloudy
6:50 AM10 °C10 °C100 %1016.3 hPa4.5 kmNW (310°)1.9 km/hMostly Cloudy
7:00 AM10 °C9.4 °C94 %1016.9 hPaNNW (340°)1.9 km/h
7:20 AM10 °C10 °C100 %1016.3 hPa4.5 kmCalmMostly Cloudy
7:50 AM10 °C10 °C100 %1016.3 hPa4.5 kmCalmRainLight Rain Showers
8:00 AM10.6 °C9.4 °C92 %1016.9 hPa4.8 kmNorth (350°)3.7 km/hRainLight Rain Showers
8:20 AM10 °C10 °C100 %1016.3 hPa4.5 kmCalmRainLight Rain Showers
8:50 AM11 °C10 °C94 %1017.3 hPa5 kmCalmMostly Cloudy
9:00 AM11.1 °C9.4 °C84 %1017.3 hPaNNW (340°)1.9 km/h
9:20 AM11 °C10 °C94 %1017.3 hPa6 kmVariable1.9 km/hMostly Cloudy
9:50 AM11 °C10 °C94 %1017.3 hPa6 kmNE (40°)9.3 km/hMostly Cloudy
10:00 AM11.1 °C8.9 °C83 %1017.3 hPaNNE (30°)9.3 km/h
10:20 AM11 °C10 °C94 %1017.3 hPa6 kmNE (40°)7.4 km/hMostly Cloudy
10:50 AM12 °C10 °C88 %1017.3 hPa6 kmNE (50°)9.3 km/hMostly Cloudy
11:20 AM11 °C9 °C88 %1017.3 hPa6 kmNE (50°)13 km/hMostly Cloudy
11:50 AM12 °C10 °C88 %1017.3 hPa6 kmNE (50°)9.3 km/hRainLight Rain Showers
12:00 PM11.7 °C9.4 °C80 %1017.6 hPaNNE (30°)7.4 km/h
12:20 PM12 °C10 °C88 %1017.3 hPa6 kmEast (80°)7.4 km/hRainLight Rain
12:50 PM12 °C10 °C88 %1017.3 hPa6 kmENE (70°)7.4 km/hMostly Cloudy
1:00 PM12.2 °C8.9 °C74 %1017.6 hPaENE (60°)7.4 km/h
1:20 PM13 °C10 °C82 %1017.3 hPa6.9 kmNNE (30°)7.4 km/hRainLight Rain Showers
1:50 PM13 °C10 °C82 %1017.3 hPa6.9 kmNE (40°)11.1 km/hRainLight Rain Showers
2:00 PM13.3 °C8.9 °C68 %1016.9 hPa6.4 kmENE (60°)14.8 km/hRainLight Rain Showers
2:20 PM14 °C10 °C77 %1017.3 hPa8 kmNE (40°)13 km/hMostly Cloudy
2:50 PM15 °C10 °C72 %1017.3 hPa10 kmNNE (30°)13 km/hMostly Cloudy
3:00 PM14.4 °C9.4 °C65 %1016.6 hPaNE (50°)16.7 km/h
3:20 PM14 °C10 °C77 %1016.3 hPa9 kmNE (40°)14.8 km/hMostly Cloudy
3:50 PM14 °C10 °C77 %1016.3 hPa8 kmNE (50°)14.8 km/hMostly Cloudy
4:00 PM14.4 °C9.4 °C65 %1015.9 hPaNE (40°)16.7 km/h
4:20 PM15 °C10 °C72 %1016.3 hPa8 kmNE (50°)13 km/hMostly Cloudy
4:50 PM15 °C10 °C72 %1016.3 hPa8 kmNNE (20°)7.4 km/hMostly Cloudy
5:20 PM14 °C10 °C77 %1016.3 hPa8 kmNE (40°)7.4 km/hMostly Cloudy
5:50 PM15 °C11 °C77 %1015.2 hPa8 kmNE (40°)13 km/hScattered Clouds
6:00 PM14.4 °C10 °C67 %1015.6 hPaNorth (10°)9.3 km/h
6:20 PM15 °C11 °C77 %1016.3 hPa8 kmNorth (360°)7.4 km/hScattered Clouds
6:50 PM15 °C11 °C77 %1016.3 hPa8 kmNorth (360°)7.4 km/hScattered Clouds
7:00 PM15 °C10 °C65 %1015.6 hPaNNE (20°)13 km/h
7:20 PM15 °C10 °C72 %1016.3 hPa8 kmNE (40°)9.3 km/hScattered Clouds
7:50 PM14 °C10 °C77 %1016.3 hPa8 kmNE (40°)11.1 km/hScattered Clouds
8:00 PM13.9 °C9.4 °C68 %1015.9 hPa8 kmNE (40°)13 km/hMist
8:20 PM14 °C10 °C77 %1016.3 hPa8 kmNE (40°)11.1 km/hScattered Clouds
8:50 PM14 °C10 °C77 %1016.3 hPa8 kmENE (60°)14.8 km/hMostly Cloudy
9:00 PM13.3 °C9.4 °C71 %1016.3 hPaENE (60°)16.7 km/h
9:20 PM13 °C10 °C82 %1016.3 hPa6.9 kmENE (60°)16.7 km/hOvercast
9:50 PM13 °C10 °C82 %1017.3 hPa8 kmNE (50°)14.8 km/hOvercast
10:00 PM12.8 °C8.9 °C71 %1016.9 hPaNNE (30°)13 km/h
10:20 PM12 °C10 °C88 %1017.3 hPa8 kmNE (50°)11.1 km/hMostly Cloudy
10:50 PM13 °C10 °C82 %1017.3 hPa6.9 kmNE (40°)9.3 km/hMostly Cloudy
11:20 PM12 °C10 °C88 %1017.3 hPa6.9 kmNE (50°)9.3 km/hMostly Cloudy
11:50 PM12 °C10 °C88 %1017.3 hPa6.9 kmENE (60°)11.1 km/hMostly Cloudy
Hourly data recorded from LSGG, located 0 kilometers away from Geneva, Switzerland







STORIES FROM OUR PARTNERS